TimeCST,TemperatureF,Dew PointF,Humidity,Sea Level PressureIn,VisibilityMPH,Wind Direction,Wind SpeedMPH,Gust SpeedMPH,PrecipitationIn,Events,Conditions,WindDirDegrees,DateUTC
12:14 AM,28.9,25.0,85,29.94,10.0,WNW,8.1,-,N/A,,Overcast,300,2013-02-28 06:14:00
12:23 AM,28.9,24.1,82,29.95,10.0,WNW,8.1,-,N/A,,Overcast,290,2013-02-28 06:23:00
12:35 AM,28.9,24.1,82,29.94,10.0,WNW,6.9,-,N/A,,Overcast,290,2013-02-28 06:35:00
12:45 AM,28.9,24.1,82,29.95,10.0,WNW,6.9,-,N/A,,Overcast,290,2013-02-28 06:45:00
12:52 AM,28.4,24.8,86,29.95,10.0,West,6.9,-,N/A,,Overcast,280,2013-02-28 06:52:00
12:54 AM,28.4,24.8,86,29.95,10.0,West,6.9,-,N/A,,Overcast,280,2013-02-28 06:54:00
1:34 AM,30.0,25.0,82,29.95,10.0,WNW,8.1,-,N/A,,Overcast,300,2013-02-28 07:34:00
1:54 AM,30.0,25.0,82,29.97,10.0,WNW,9.2,-,N/A,,Overcast,300,2013-02-28 07:54:00
2:14 AM,30.0,25.0,82,29.94,10.0,WNW,11.5,-,N/A,,Overcast,300,2013-02-28 08:14:00
2:54 AM,30.9,25.0,79,29.96,10.0,WNW,10.4,-,N/A,,Overcast,290,2013-02-28 08:54:00
3:54 AM,30.9,25.0,79,29.98,10.0,WNW,12.7,-,N/A,,Overcast,300,2013-02-28 09:54:00
4:54 AM,30.9,25.0,79,30.00,10.0,WNW,13.8,-,N/A,,Overcast,300,2013-02-28 10:54:00
5:43 AM,30.0,24.1,79,29.99,10.0,WNW,12.7,-,N/A,,Overcast,300,2013-02-28 11:43:00
5:54 AM,30.0,24.1,79,30.03,10.0,WNW,11.5,-,N/A,,Overcast,300,2013-02-28 11:54:00
6:01 AM,30.0,24.1,79,30.00,10.0,WNW,12.7,-,N/A,,Overcast,300,2013-02-28 12:01:00
6:51 AM,28.4,24.8,86,30.02,10.0,NW,13.8,-,N/A,,Overcast,310,2013-02-28 12:51:00
6:54 AM,28.9,24.1,82,30.05,10.0,NW,12.7,-,N/A,,Overcast,310,2013-02-28 12:54:00
7:54 AM,28.9,23.0,78,30.08,9.0,WNW,13.8,-,N/A,,Overcast,300,2013-02-28 13:54:00
8:54 AM,28.9,23.0,78,30.09,9.0,NW,15.0,-,N/A,,Overcast,310,2013-02-28 14:54:00
9:54 AM,30.0,24.1,79,30.10,9.0,NW,11.5,-,N/A,,Overcast,320,2013-02-28 15:54:00
10:54 AM,30.0,24.1,79,30.12,10.0,WNW,11.5,-,N/A,,Overcast,300,2013-02-28 16:54:00
11:54 AM,32.0,25.0,75,30.12,10.0,WNW,12.7,-,N/A,,Overcast,300,2013-02-28 17:54:00
12:38 PM,32.0,25.0,75,30.09,10.0,WNW,13.8,-,N/A,,Overcast,290,2013-02-28 18:38:00
12:54 PM,32.0,25.0,75,30.11,10.0,WNW,10.4,-,N/A,,Overcast,300,2013-02-28 18:54:00
1:54 PM,33.1,25.0,72,30.11,10.0,NW,16.1,-,N/A,,Overcast,310,2013-02-28 19:54:00
2:54 PM,33.1,26.1,75,30.12,5.0,WNW,13.8,-,0.00,Snow,Light Snow,300,2013-02-28 20:54:00
3:15 PM,33.1,27.0,78,30.10,2.5,WNW,10.4,-,0.00,Snow,Light Snow,290,2013-02-28 21:15:00
3:54 PM,33.1,27.0,78,30.12,2.5,WNW,11.5,-,0.00,,Haze,300,2013-02-28 21:54:00
3:58 PM,33.1,27.0,78,30.10,6.0,WNW,11.5,-,N/A,,Haze,300,2013-02-28 21:58:00
4:54 PM,33.1,27.0,78,30.13,6.0,WNW,12.7,-,0.00,Snow,Light Snow,300,2013-02-28 22:54:00
5:03 PM,32.0,27.0,82,30.11,2.5,NW,12.7,-,0.00,Snow,Light Snow,310,2013-02-28 23:03:00
5:54 PM,32.0,26.1,79,30.14,8.0,NW,9.2,-,0.00,,Overcast,310,2013-02-28 23:54:00
6:10 PM,32.0,25.0,75,30.12,10.0,NW,9.2,-,N/A,,Overcast,310,2013-03-01 00:10:00
6:54 PM,32.0,26.1,79,30.15,9.0,WNW,8.1,-,N/A,,Overcast,290,2013-03-01 00:54:00
7:54 PM,32.0,26.1,79,30.15,10.0,WNW,8.1,-,0.00,,Overcast,300,2013-03-01 01:54:00
8:54 PM,32.0,25.0,75,30.15,10.0,NW,10.4,-,N/A,,Overcast,320,2013-03-01 02:54:00
9:54 PM,30.9,25.0,79,30.16,10.0,NW,8.1,-,N/A,,Overcast,320,2013-03-01 03:54:00
10:28 PM,30.9,25.0,79,30.13,10.0,NW,9.2,-,N/A,,Overcast,310,2013-03-01 04:28:00
10:54 PM,30.9,25.0,79,30.16,10.0,NW,10.4,-,N/A,,Overcast,310,2013-03-01 04:54:00
11:54 PM,30.9,24.1,76,30.15,10.0,NW,9.2,-,N/A,,Overcast,310,2013-03-01 05:54:00